STARLINK-35304, 66249

Orbit data source: Space-Track

STARLINK-35304, 66249 is a payload satellite owned by SpaceX/Seattle (US) in LEO that was launched on Wed, 29 Oct 2025 UTC via an FALCON 9 launch vehicle from the Air Force Eastern Test Range (AFETR). Payload-class satellites include a variety of spacecraft equipped with specific instruments for various scientific and technological missions. These include communications satellites like Starlink; space stations such as the ISS; scientific satellites like the Hubble; Earth observation satellites from companies like Planet Labs, Umbra, and HawkEye 360; GPS; miniature CubeSats for education and research; and military/defense satellites.

Loading next visibility...
Identifier
66249, 2025-245R
Orbit
LEO
Country
Flag of USUS
Related business
Manufacturer
SpaceX/Seattle
Mission
Operational Commercial Communications
Bus & Motor
STARLINK V2MO, Unknown motor
Mass
575 kg wet, ~530 kg dry
Launch date (UTC)
2025-10-29 (8 months ago)
Launch vehicle
FALCON 9
Launch site
Air Force Eastern Test Range (AFETR)
Object type
Payload
Rocket body
Debris
Shape & HBR
Box + 2 Pan, 17.7 m
Radar Cross Section
36.964 m², Large (>1 m²)

Expand to show TLE details & history
Last TLE update: 14 hours ago

TLE from 14 hours ago
0 STARLINK-35304
1 66249U 25245R   26171.26769213  .00014597  00000-0  50380-3 0  9993
2 66249  53.1589 167.2849 0001095  83.8207 276.2919 15.30211109 36749
Epoch: 2026-06-20T06:25Z
TLE epoch observation values (Epoch: 2026-06-20T06:25:28.600Z)
Latitude
0.00004°
Longitude
162.431°
Altitude
475.999 km
Speed
7.629 km/s
True Right ascension
11h 09m 08s
True Declination
0° 00' 00"
Sunlit
Object was in daylight at epoch
Visualization orbit readout
Latitude
Unknown
Longitude
Unknown
Altitude
Unknown
Speed
Unknown
Apparent Right ascension
Unknown
Apparent Declination
Unknown
Sunlit
N/A
Visualization observer readout
Local Sidereal Time
07:17:26
Azimuth
Unknown
Elevation
Unknown
Doppler factor
Unknown
Orbital elements
Apogee altitude
476.189 km
Perigee altitude
474.688 km
Semi-major axis
6,853.576 km
Eccentricity
0.00011
Inclination
53.1589°
RAAN
167.2849°
Arg. of periapsis
83.8207°
True anomaly
276.27943°
Mean anomaly
276.2919°
Eccentric anomaly
276.28566°
Mean motion
3.82532 °/min
Orbital period
94.11 mins
BSTAR
0.0005038
Loading maneuver chart data...
Computing Atmospheric mass density...
Loading historical data...
Loading historical data...
Loading historical data...
Loading historical data...
Loading historical data...
Loading historical data...
Loading historical data...

Documentation

Showing up to 5 results
|